Regional Weather Roundup
Issued by NWS

Home | Current Version | Previous Version | Graphics & Text | Print | Product List | Glossary On
Versions: 1 2 3 4 5 6 7 8 9 10 11 12 13 14 15 16 17 18 19 20 21 22 23 24 25 26 27 28 29 30 31 32 33 34 35 36 37 38 39 40 41 42 43 44 45 46 47 48 49 50
346
ASUS43 KLMK 230710
RWRKY
KENTUCKY REGIONAL WEATHER ROUNDUP
NATIONAL WEATHER SERVICE LOUISVILLE KY
300 AM EDT SUN APR 23 2017

NOTE "FAIR" INDICATES FEW OR NO CLOUDS BELOW 12,000 FEET
WITH NO SIGNIFICANT WEATHER AND/OR OBSTRUCTIONS TO VISIBILITY.

KYZ001>023-026-027-061>063-070>075-230800-
WESTERN AND SOUTH CENTRAL KENTUCKY

CITY           SKY/WX    TMP DP  RH WIND       PRES   REMARKS
PADUCAH        CLOUDY    52  42  69 NE8       29.95F
HENDERSON      CLOUDY    51  39  63 NE13      29.97F
OWENSBORO      CLOUDY    51  40  65 NE12      29.96F
HOPKINSVILLE   CLOUDY    51  45  80 NE15      29.89F
BOWLING GREEN  CLOUDY    52  46  80 NE15G22   29.91F
GLASGOW        CLOUDY    50  45  82 NE14G23   29.90F
$$

KYZ024-025-028>034-038-045-046-053-230800-
NORTH CENTRAL KENTUCKY

CITY           SKY/WX    TMP DP  RH WIND       PRES   REMARKS
LOUISVILLE/SDF MOCLDY    49  38  65 N8        29.99F
LOUISVILLE/LOU CLOUDY    49  37  63 NE9       30.00F
FORT KNOX      CLOUDY    47  39  72 NE9       29.96F
$$

KYZ035>037-039>044-047>052-055>060-089>105-230800-
NORTHEAST KENTUCKY

CITY           SKY/WX    TMP DP  RH WIND       PRES   REMARKS
LEXINGTON      CLOUDY    47  39  74 NE15      29.98F
COVINGTON      CLEAR     45  35  68 NE15      30.03F
FRANKFORT      MOCLDY    47  37  68 NE8       29.98F
$$

KYZ054-064>069-076>088-106>120-230800-
SOUTHEAST KENTUCKY

CITY           SKY/WX    TMP DP  RH WIND       PRES   REMARKS
JACKSON        CLOUDY    47  43  86 VRB5      29.96S
LONDON         CLOUDY    48  45  89 NE9       29.93F
SOMERSET       CLOUDY    46  46 100 E8        29.94F
MIDDLESBORO    CLOUDY    52  51  97 CALM      29.91F
MONTICELLO     LGT RAIN  48  47  96 N8G18     29.93F
$$





USA.gov is the U.S. government's official web portal to all federal, state and local government web resources and services.